• In Lithuania
  • List of Countries
  • For 7 days
  • Water Temperature
  • Satellite Maps
  • Weather Map
  • Weather Widgets
  • user-avatar
    Login

    Hourly Weather Kitzbuhel

    Today, 20 January, Saturday

    Time Temperature Precipitation Wind Pressure Humidity
    00:00 -6°C° 0.1 mm 2 mps 672 mmHg 83%
    01:00 -5°C° 0 mm 2 mps 672 mmHg 80%
    02:00 -5°C° 0.4 mm 2 mps 672 mmHg 84%
    03:00 -4°C° 0.4 mm 2 mps 672 mmHg 87%
    04:00 -4°C° 0.4 mm 2 mps 672 mmHg 91%
    05:00 -5°C° 0.2 mm 2 mps 672 mmHg 91%
    06:00 -5°C° 0.2 mm 2 mps 672 mmHg 90%
    07:00 -6°C° 0 mm 2 mps 672 mmHg 90%
    08:00 -5°C° 0 mm 2 mps 672 mmHg 87%
    09:00 -4°C° 0 mm 2 mps 672 mmHg 84%
    10:00 -3°C° 0 mm 2 mps 672 mmHg 82%
    11:00 -2°C° 0 mm 2 mps 671 mmHg 77%
    12:00 -1°C° 0 mm 2 mps 671 mmHg 72%
    13:00 +2°C° 0 mm 1 mps 670 mmHg 67%
    14:00 -1°C° 0 mm 2 mps 670 mmHg 72%
    15:00 -1°C° 0 mm 2 mps 669 mmHg 76%
    16:00 -2°C° 0 mm 2 mps 668 mmHg 81%
    17:00 -2°C° 0.1 mm 2 mps 667 mmHg 82%
    18:00 -3°C° 0.1 mm 2 mps 666 mmHg 84%
    19:00 -4°C° 0.1 mm 3 mps 666 mmHg 85%
    20:00 -4°C° 1 mm 3 mps 665 mmHg 88%
    21:00 -4°C° 1 mm 3 mps 665 mmHg 91%
    22:00 -5°C° 1 mm 3 mps 664 mmHg 94%
    23:00 -3°C° 1.2 mm 2 mps 664 mmHg 94%

    Tomorrow, 21 January, Sunday

    Time Temperature Precipitation Wind Pressure Humidity
    00:00 -3°C° 1.2 mm 2 mps 664 mmHg 94%
    01:00 -3°C° 1.2 mm 2 mps 665 mmHg 94%
    02:00 -3°C° 0.8 mm 2 mps 665 mmHg 94%
    03:00 -3°C° 0.8 mm 2 mps 665 mmHg 95%
    04:00 -2°C° 0.8 mm 2 mps 665 mmHg 95%
    05:00 -2°C° 1.4 mm 2 mps 665 mmHg 96%
    06:00 -2°C° 1.4 mm 2 mps 665 mmHg 96%
    07:00 -2°C° 1.4 mm 2 mps 666 mmHg 96%
    08:00 -2°C° 1.3 mm 2 mps 666 mmHg 96%
    09:00 -2°C° 1.3 mm 3 mps 667 mmHg 96%
    10:00 -2°C° 1.3 mm 3 mps 668 mmHg 95%
    11:00 -2°C° 0.8 mm 3 mps 668 mmHg 94%
    12:00 -3°C° 0.8 mm 4 mps 669 mmHg 93%
    13:00 -4°C° 0.8 mm 4 mps 670 mmHg 92%
    14:00 -4°C° 0.5 mm 4 mps 671 mmHg 92%
    15:00 -4°C° 0.5 mm 4 mps 671 mmHg 92%
    16:00 -4°C° 0.5 mm 3 mps 672 mmHg 92%
    17:00 -5°C° 0.3 mm 3 mps 673 mmHg 93%
    18:00 -4°C° 0.3 mm 2 mps 673 mmHg 93%
    19:00 -5°C° 0.3 mm 2 mps 674 mmHg 94%
    20:00 -5°C° 0.1 mm 2 mps 674 mmHg 93%
    21:00 -6°C° 0.1 mm 2 mps 674 mmHg 93%
    22:00 -6°C° 0.1 mm 2 mps 675 mmHg 92%
    23:00 -6°C° 0.4 mm 2 mps 674 mmHg 92%

    Day after tomorrow, 22 January, Monday

    Time Temperature Precipitation Wind Pressure Humidity
    00:00 -3°C° 0.4 mm 1 mps 674 mmHg 93%
    01:00 -3°C° 0.4 mm 1 mps 674 mmHg 93%
    02:00 -2°C° 1.4 mm 1 mps 673 mmHg 94%
    03:00 -2°C° 1.4 mm 1 mps 673 mmHg 95%
    04:00 -3°C° 1.4 mm 2 mps 672 mmHg 96%
    05:00 -3°C° 2.8 mm 2 mps 672 mmHg 96%
    06:00 -2°C° 2.8 mm 2 mps 671 mmHg 96%
    07:00 -2°C° 2.8 mm 2 mps 671 mmHg 96%
    08:00 -1°C° 2.4 mm 2 mps 672 mmHg 97%
    09:00 +2°C° 2.4 mm 1 mps 672 mmHg 97%
    10:00 +2°C° 2.4 mm 1 mps 673 mmHg 98%
    11:00 +3°C° 1.5 mm 1 mps 673 mmHg 98%
    12:00 +2°C° 1.5 mm 2 mps 673 mmHg 98%
    13:00 +3°C° 1.5 mm 2 mps 672 mmHg 99%
    14:00 +3°C° 0.8 mm 2 mps 673 mmHg 98%
    15:00 +3°C° 0.8 mm 2 mps 673 mmHg 98%
    16:00 +3°C° 0.8 mm 2 mps 673 mmHg 97%
    17:00 +3°C° 0.3 mm 2 mps 673 mmHg 97%
    18:00 +3°C° 0.3 mm 2 mps 674 mmHg 96%
    19:00 +2°C° 0.3 mm 2 mps 674 mmHg 95%
    20:00 +2°C° 0.3 mm 2 mps 674 mmHg 94%
    21:00 +2°C° 0.3 mm 2 mps 674 mmHg 93%
    22:00 +2°C° 0.3 mm 2 mps 675 mmHg 92%
    23:00 +2°C° 0.4 mm 2 mps 675 mmHg 93%

    23 January, Tuesday

    Time Temperature Precipitation Wind Pressure Humidity
    00:00 +3°C° 0.4 mm 1 mps 675 mmHg 93%
    01:00 +3°C° 0.4 mm 1 mps 675 mmHg 93%
    02:00 +3°C° 0.8 mm 1 mps 675 mmHg 94%
    03:00 +3°C° 0.8 mm 1 mps 675 mmHg 95%
    04:00 +3°C° 0.8 mm 1 mps 675 mmHg 95%
    05:00 +3°C° 0.3 mm 1 mps 676 mmHg 95%
    06:00 +3°C° 0.3 mm 1 mps 677 mmHg 95%
    07:00 +3°C° 0.3 mm 1 mps 677 mmHg 95%
    08:00 +3°C° 0.2 mm 1 mps 678 mmHg 96%
    09:00 +3°C° 0.2 mm 1 mps 678 mmHg 97%
    10:00 +2°C° 0.2 mm 2 mps 679 mmHg 98%
    11:00 +2°C° 0.1 mm 2 mps 679 mmHg 98%
    12:00 +4°C° 0.1 mm 1 mps 680 mmHg 98%
    13:00 +4°C° 0.1 mm 1 mps 680 mmHg 98%
    14:00 +4°C° 0 mm 1 mps 680 mmHg 98%
    15:00 +3°C° 0 mm 1 mps 681 mmHg 97%
    16:00 +3°C° 0 mm 1 mps 681 mmHg 97%
    17:00 +2°C° 0 mm 1 mps 681 mmHg 95%
    18:00 +2°C° 0 mm 1 mps 682 mmHg 93%
    19:00 +1°C° 0 mm 1 mps 682 mmHg 91%
    20:00 0°C° 0 mm 1 mps 682 mmHg 89%
    21:00 0°C° 0 mm 1 mps 682 mmHg 86%
    22:00 -2°C° 0 mm 2 mps 683 mmHg 83%
    23:00 0°C° 0 mm 1 mps 683 mmHg 80%

    24 January, Wednesday

    Time Temperature Precipitation Wind Pressure Humidity
    00:00 -1°C° 0 mm 1 mps 683 mmHg 77%
    01:00 -1°C° 0 mm 1 mps 683 mmHg 74%
    02:00 -1°C° 0 mm 1 mps 683 mmHg 72%
    03:00 -1°C° 0 mm 1 mps 682 mmHg 70%
    04:00 -3°C° 0 mm 2 mps 682 mmHg 68%
    05:00 -3°C° 0 mm 2 mps 683 mmHg 67%
    06:00 -3°C° 0 mm 2 mps 683 mmHg 66%
    07:00 -3°C° 0 mm 2 mps 683 mmHg 65%
    08:00 +1°C° 0 mm 1 mps 683 mmHg 68%
    09:00 +2°C° 0 mm 1 mps 683 mmHg 72%
    10:00 +4°C° 0 mm 1 mps 684 mmHg 75%
    11:00 +5°C° 0 mm 1 mps 684 mmHg 81%
    12:00 +5°C° 0 mm 1 mps 683 mmHg 88%
    13:00 +6°C° 0 mm 1 mps 683 mmHg 94%
    14:00 +6°C° 0 mm 1 mps 683 mmHg 90%
    15:00 +5°C° 0 mm 1 mps 683 mmHg 87%
    16:00 +5°C° 0 mm 1 mps 682 mmHg 83%
    17:00 +4°C° 0 mm 1 mps 682 mmHg 79%
    18:00 +3°C° 0 mm 1 mps 682 mmHg 74%
    19:00 -1°C° 0 mm 2 mps 682 mmHg 70%
    20:00 -1°C° 0 mm 2 mps 682 mmHg 68%
    21:00 -1°C° 0 mm 2 mps 682 mmHg 67%
    22:00 -1°C° 0 mm 2 mps 682 mmHg 65%
    23:00 -1°C° 0 mm 2 mps 682 mmHg 64%

    25 January, Thursday

    Time Temperature Precipitation Wind Pressure Humidity
    00:00 -2°C° 0 mm 2 mps 681 mmHg 63%
    01:00 -2°C° 0 mm 2 mps 681 mmHg 63%
    02:00 -2°C° 0 mm 2 mps 681 mmHg 63%
    03:00 -2°C° 0 mm 2 mps 681 mmHg 63%
    04:00 -2°C° 0 mm 2 mps 680 mmHg 63%
    05:00 -2°C° 0 mm 2 mps 680 mmHg 63%
    06:00 -2°C° 0 mm 2 mps 680 mmHg 62%
    07:00 -2°C° 0 mm 2 mps 680 mmHg 62%
    08:00 -1°C° 0 mm 2 mps 680 mmHg 66%
    09:00 +3°C° 0 mm 1 mps 680 mmHg 70%
    10:00 +4°C° 0 mm 1 mps 680 mmHg 73%
    11:00 +5°C° 0 mm 1 mps 680 mmHg 79%
    12:00 +6°C° 0 mm 1 mps 679 mmHg 84%
    13:00 +6°C° 0 mm 1 mps 679 mmHg 90%
    14:00 +6°C° 0 mm 1 mps 678 mmHg 88%
    15:00 +5°C° 0 mm 1 mps 678 mmHg 87%
    16:00 +5°C° 0 mm 1 mps 677 mmHg 85%
    17:00 +3°C° 0 mm 2 mps 677 mmHg 83%
    18:00 +2°C° 0 mm 2 mps 677 mmHg 81%
    19:00 +1°C° 0 mm 2 mps 676 mmHg 79%
    20:00 -1°C° 0 mm 2 mps 676 mmHg 79%
    21:00 -1°C° 0 mm 2 mps 676 mmHg 79%
    22:00 -2°C° 0 mm 2 mps 676 mmHg 79%
    23:00 -2°C° 0 mm 2 mps 675 mmHg 80%
    Show more